Vertical_Velocity
-2 -8 -19 12 10 3 12 14 22 -3 -2 -1 2 0 -4 -5 -5 1 -2 8 9 0 -3 -2 -2 -2 -2 -3 -6 -2 -1 -2 -0 -1 -1 1 4 2 -5 -4 -6 -2 -5 3
-11 -14 15 11 4 5 -6 -1 4 -12 1 1 2 3 -4 -5 -4 -3 -2 2 8 -2 -2 -1 -2 -2 -2 -2 -1 -2 -2 -3 1 1 -1 -1 0 3 1 1 0 -1 -3 -5
-7 17 6 -2 2 -5 0 -4 3 -1 -4 -1 -4 -12 -6 -5 -3 -5 -2 3 5 8 -5 -1 -1 -1 1 -0 -0 -0 -0 -2 -2 -1 -0 0 -1 -0 2 3 2 1 -1 -2
1 13 -2 2 -2 -4 -11 1 2 -6 -0 -3 18 -2 1 1 -5 -4 -1 4 4 4 -2 -4 -1 -2 -3 -2 -2 -1 0 -0 -1 -1 -2 -2 -3 0 -1 0 1 1 3 1
6 4 6 -1 4 0 8 6 6 8 8 7 -9 -8 5 -7 -5 2 2 -1 -0 4 1 -0 1 1 1 1 -3 1 -0 -0 -2 -2 -2 -1 -2 -2 -2 -3 -2 -2 -2 2
3 7 -2 4 7 2 7 2 10 6 4 -20 4 -1 -10 -3 -1 -3 4 -3 0 8 4 0 0 1 2 2 1 -3 -2 -3 -3 -1 -0 -2 -1 -3 -3 -1 -3 -3 -2 -3
8 5 5 8 4 13 -0 1 -12 -8 -20 -2 4 -16 1 -2 6 9 4 -0 -2 3 5 0 -4 -4 -1 0 1 0 1 1 -0 -2 -1 -1 -0 1 2 2 2 1 -2 -4
5 -10 -0 7 5 19 3 5 -7 -14 -13 13 4 -32 -2 -3 0 7 1 -0 -2 -0 4 3 1 -2 -1 -2 -1 -1 -0 0 -0 1 -2 -1 1 1 1 0 -0 -0 2 2
8 -4 7 7 5 6 -7 -8 2 6 -1 16 -11 -18 1 -5 -1 7 2 -0 -2 -1 -1 1 1 -1 0 0 -2 -3 -2 -4 -2 -4 -2 -1 -2 -5 -2 -1 -1 -1 0 1
3 -3 3 1 8 3 -5 15 -11 -8 -4 -9 -8 -16 -10 3 6 4 -5 -0 -1 -1 -1 0 1 -3 -4 -1 -0 -3 -2 -4 -3 -1 -2 -3 -2 -3 -3 -1 -1 -4 -3 -2
3 8 5 6 -5 7 4 -12 -9 5 -2 -8 -6 -12 -0 2 -1 -3 -2 -1 -2 -1 1 2 5 3 -6 -5 -3 -2 1 2 -1 -6 -3 -3 -4 -4 -3 -2 -1 -2 -3 -2
6 4 2 18 17 12 5 9 3 1 -6 -9 -6 -11 -3 -0 -1 -6 0 1 0 -0 -4 1 0 1 -1 -1 0 -2 -1 -3 -4 -4 -1 -0 -2 -4 -3 -1 -1 -0 -1 -4
6 -6 1 -1 -7 -11 -12 5 8 1 6 -14 -1 -3 5 -5 -4 -2 1 -1 -6 2 2 4 5 1 1 -1 0 -5 -2 -3 -2 -1 -1 -2 -4 -3 -3 -3 -4 -4 -2 -3
3 0 -5 6 36 26 6 9 3 3 -6 -2 -11 4 1 1 1 2 -2 -0 -2 -1 -0 2 1 -2 -3 -1 -2 -3 -2 -2 -1 -1 -1 -2 -2 -1 -2 -2 -2 -3 -4 -3
1 -1 1 6 4 3 6 10 6 -6 14 -14 10 1 5 8 10 -0 -2 -2 2 -2 4 4 1 -4 -5 2 -4 -2 -1 -1 -3 -1 -2 -2 -3 -2 -2 -2 -2 -4 -5 -5
6 7 3 -3 4 -2 -0 7 -7 -4 -3 -4 -0 -6 5 -3 -5 -6 6 -1 -5 2 1 -1 -4 -6 0 -2 -4 -1 -1 1 -3 -0 -0 -1 -1 -2 -2 -2 -1 -1 -3 -5
4 4 1 -3 -3 5 -19 -6 7 10 2 4 -25 14 -4 3 6 5 2 -4 -3 -1 2 -2 -6 1 2 -1 -1 0 1 -1 0 0 -0 -1 -2 -2 -2 -2 -1 -0 -2 -2
-2 4 3 -3 11 -36 38 -1 2 1 8 -6 -1 -6 3 5 -0 -6 -3 -4 -1 4 -0 -4 2 2 -1 -4 -2 -1 -2 -2 0 -1 -1 -2 -2 -2 -1 -2 -2 -3 -3 -2
4 3 -8 -11 2 8 -7 -6 -3 -16 6 -11 -5 -4 0 3 -3 2 4 6 4 -1 -2 -4 -3 -2 -2 -3 -0 -1 -2 -1 -1 -0 -2 -2 -2 -3 -3 -3 -3 -1 -1 -2
1 0 -8 -0 -15 -35 40 11 4 16 -24 -2 -2 1 1 1 -0 7 -2 -4 -5 -4 -2 -1 -1 -2 -3 -2 -0 -2 -3 -2 -1 -2 -3 -3 -3 -3 -3 -2 -0 -2 -1 -2
3 4 -11 1 -12 -13 7 2 2 -43 33 -3 -6 -1 2 6 12 -8 -0 -3 1 -1 -1 0 -1 -2 -3 -3 -2 -2 -2 -3 -2 -2 -3 -3 -2 -3 -2 -3 -1 1 1 -3
9 0 -9 2 -10 -29 11 -11 -37 59 -2 7 -0 1 -0 -1 -0 3 -1 0 -0 0 0 -2 -2 -2 -2 -2 -3 -3 -3 -1 -1 -3 -4 -4 -2 -2 -3 -3 -4 -4 -1 -2
-29 -36 -0 -10 16 16 5 13 8 8 2 -1 5 4 4 1 1 0 -0 1 2 -1 -1 0 1 -2 -3 -4 -3 -2 -1 -2 -2 -3 -2 -3 -4 -1 -2 -4 -3 -3 -3 -2
-8 4 -21 -1 -2 7 12 13 5 3 2 0 7 4 5 4 2 1 -1 -0 -0 0 1 -1 1 -2 -1 -1 -4 -3 -3 -2 -2 -1 -2 -2 -5 -5 -5 -5 -5 -5 -4 -4
14 20 3 6 -4 -6 -12 -8 5 7 8 2 -1 2 3 1 3 2 0 0 1 -1 -4 1 0 2 1 -5 -4 -2 -2 -3 -2 -1 -1 -1 -2 -3 -7 -4 1 -5 -9 -7
-19 5 -37 -11 31 10 15 4 6 -2 3 2 4 3 4 4 3 1 0 2 1 -2 -3 0 -2 -1 -3 -3 -1 -2 -2 -2 -1 -0 -1 -2 -2 -0 2 -3 -17 -6 -6 -7
Height
5775 5781 5784 5795 5797 5801 5808 5810 5814 5814 5819 5822 5822 5825 5831 5836 5839 5843 5845 5850 5851 5850 5851 5851 5851 5852 5853 5854 5854 5853 5852 5853 5854 5854 5854 5853 5853 5852 5853 5853 5852 5852 5850 5851
5768 5773 5781 5785 5787 5790 5792 5799 5804 5804 5809 5813 5815 5819 5824 5827 5832 5835 5839 5842 5844 5843 5844 5845 5845 5845 5845 5845 5846 5846 5846 5844 5844 5844 5845 5844 5843 5843 5841 5841 5840 5839 5839 5839
5761 5769 5771 5774 5777 5782 5787 5790 5795 5799 5805 5809 5811 5813 5815 5820 5824 5828 5831 5834 5837 5838 5836 5837 5838 5839 5839 5839 5838 5838 5838 5837 5836 5835 5835 5834 5834 5833 5832 5831 5829 5828 5827 5825
5753 5759 5763 5766 5770 5776 5780 5785 5788 5792 5798 5804 5809 5807 5808 5813 5816 5820 5824 5827 5829 5830 5830 5829 5831 5831 5831 5831 5831 5831 5831 5830 5829 5828 5826 5825 5824 5823 5822 5820 5818 5816 5814 5813
5747 5751 5754 5758 5766 5773 5777 5779 5782 5789 5793 5796 5799 5800 5804 5806 5810 5814 5816 5820 5821 5823 5822 5822 5823 5823 5824 5824 5823 5823 5823 5822 5821 5819 5818 5816 5815 5813 5810 5809 5807 5805 5802 5800
5737 5742 5746 5754 5760 5765 5768 5773 5777 5779 5784 5787 5789 5794 5795 5800 5804 5805 5811 5813 5814 5816 5816 5815 5816 5817 5818 5818 5817 5816 5815 5814 5813 5811 5810 5807 5805 5803 5800 5797 5795 5792 5789 5786
5728 5734 5740 5747 5751 5755 5755 5760 5763 5770 5771 5772 5782 5785 5790 5793 5798 5802 5805 5804 5806 5808 5809 5809 5808 5808 5809 5809 5809 5809 5808 5807 5806 5804 5803 5801 5798 5795 5792 5789 5785 5781 5777 5774
5723 5729 5734 5739 5744 5749 5748 5752 5757 5762 5764 5772 5776 5776 5780 5785 5789 5794 5796 5796 5798 5800 5802 5803 5803 5803 5802 5801 5801 5800 5800 5799 5798 5796 5794 5792 5790 5787 5784 5781 5777 5773 5769 5765
5716 5721 5727 5732 5739 5743 5744 5747 5753 5758 5761 5765 5769 5769 5773 5776 5781 5788 5789 5789 5792 5793 5795 5796 5796 5795 5795 5795 5795 5794 5793 5792 5790 5787 5784 5783 5780 5778 5775 5771 5768 5764 5760 5756
5708 5713 5718 5723 5729 5734 5736 5741 5746 5750 5751 5753 5758 5760 5764 5769 5776 5779 5781 5783 5784 5786 5788 5789 5789 5789 5789 5789 5788 5787 5786 5784 5781 5778 5776 5773 5770 5768 5765 5762 5758 5754 5750 5746
5699 5705 5711 5714 5720 5726 5730 5732 5738 5744 5747 5748 5753 5754 5759 5764 5767 5769 5772 5775 5778 5779 5780 5781 5783 5782 5782 5781 5781 5779 5777 5775 5773 5771 5768 5765 5762 5759 5755 5751 5748 5744 5740 5736
5690 5696 5702 5709 5713 5718 5724 5731 5733 5736 5738 5742 5746 5750 5753 5757 5760 5764 5765 5767 5769 5772 5774 5776 5776 5776 5775 5774 5773 5771 5769 5768 5765 5763 5760 5757 5753 5750 5746 5742 5738 5733 5729 5724
5680 5684 5691 5698 5703 5708 5714 5718 5721 5726 5733 5735 5740 5744 5747 5751 5753 5758 5761 5762 5764 5765 5766 5767 5769 5769 5768 5766 5764 5764 5763 5760 5757 5754 5752 5748 5744 5741 5737 5733 5728 5723 5718 5713
5670 5675 5681 5691 5699 5703 5707 5712 5716 5720 5725 5728 5732 5736 5739 5743 5748 5754 5755 5757 5757 5758 5760 5761 5762 5761 5759 5758 5758 5756 5755 5751 5749 5746 5743 5739 5735 5732 5728 5724 5719 5713 5708 5703
5662 5666 5670 5675 5683 5689 5694 5701 5707 5711 5717 5721 5729 5731 5734 5740 5743 5746 5749 5750 5751 5752 5754 5755 5754 5752 5752 5751 5749 5747 5745 5742 5740 5737 5733 5729 5726 5723 5718 5714 5709 5704 5698 5691
5651 5657 5661 5665 5672 5677 5683 5691 5697 5702 5707 5713 5719 5722 5725 5728 5733 5738 5741 5742 5743 5744 5746 5747 5745 5744 5744 5742 5740 5738 5736 5734 5731 5728 5725 5721 5717 5713 5709 5705 5700 5694 5688 5680
5643 5648 5653 5658 5663 5667 5671 5682 5688 5692 5698 5705 5708 5716 5720 5721 5727 5731 5733 5733 5733 5736 5738 5737 5736 5735 5735 5733 5731 5729 5727 5724 5721 5719 5715 5712 5708 5704 5699 5695 5690 5684 5677 5669
5633 5638 5642 5646 5652 5654 5669 5673 5679 5684 5692 5697 5701 5705 5711 5715 5718 5720 5723 5724 5728 5730 5729 5728 5728 5727 5725 5723 5721 5720 5718 5714 5712 5709 5706 5703 5699 5695 5690 5685 5679 5673 5665 5657
5623 5627 5630 5634 5641 5648 5653 5663 5668 5671 5679 5685 5691 5698 5702 5707 5711 5715 5719 5722 5723 5722 5722 5721 5719 5718 5716 5714 5712 5711 5708 5706 5703 5700 5697 5694 5690 5685 5680 5675 5669 5662 5655 5646
5611 5617 5621 5626 5630 5635 5650 5656 5662 5667 5669 5677 5682 5689 5695 5700 5705 5711 5711 5712 5713 5713 5713 5712 5712 5710 5708 5706 5704 5702 5699 5697 5695 5692 5688 5684 5680 5675 5670 5665 5659 5651 5644 5635
5602 5606 5611 5616 5622 5630 5640 5647 5650 5654 5668 5671 5677 5683 5688 5695 5701 5700 5703 5705 5706 5706 5706 5705 5703 5702 5700 5698 5696 5693 5690 5689 5686 5683 5679 5675 5670 5665 5660 5654 5648 5640 5632 5623
5595 5597 5602 5609 5614 5622 5633 5638 5642 5659 5664 5668 5673 5677 5682 5686 5691 5694 5696 5697 5698 5698 5698 5697 5696 5695 5693 5691 5688 5685 5682 5679 5676 5673 5669 5665 5660 5655 5649 5643 5636 5629 5621 5612
5578 5587 5596 5604 5612 5621 5629 5636 5643 5650 5656 5662 5667 5671 5676 5680 5683 5685 5688 5690 5691 5691 5691 5690 5689 5688 5685 5683 5680 5676 5673 5670 5667 5663 5659 5655 5650 5645 5639 5632 5626 5619 5610 5601
5571 5579 5584 5592 5601 5612 5622 5630 5636 5642 5647 5653 5658 5664 5669 5673 5676 5678 5680 5682 5684 5684 5684 5683 5682 5680 5678 5675 5671 5668 5663 5660 5657 5653 5649 5644 5639 5633 5628 5621 5614 5607 5599 5590
5560 5569 5575 5583 5594 5603 5609 5617 5622 5630 5637 5642 5648 5654 5659 5663 5667 5670 5672 5674 5676 5675 5675 5675 5673 5671 5668 5665 5661 5657 5654 5651 5647 5643 5639 5634 5628 5623 5616 5610 5603 5595 5586 5578
5542 5558 5564 5575 5590 5597 5604 5610 5615 5622 5629 5634 5640 5645 5650 5654 5658 5660 5663 5665 5666 5665 5666 5665 5663 5661 5657 5655 5652 5649 5645 5641 5638 5634 5629 5624 5618 5612 5606 5598 5589 5582 5574 5565